Change the Weather History Date:

Tuesday, August 26, 2014

  Actual Average Record
Temperature  
Mean Temperature 68 °F 68 °F  
Max Temperature 84 °F 84 °F 102 °F (1926)
Min Temperature 52 °F 52 °F 34 °F (1910)
Degree Days  
Heating Degree Days 0 1  
Month to date heating degree days 2 15  
Since 1 June heating degree days 128 120  
Since 1 July heating degree days 29 27  
Cooling Degree Days 3 4  
Month to date cooling degree days 181 171  
Year to date cooling degree days 453 503  
Since 1 June cooling degree days 439 493  
Growing Degree Days 18 (Base 50)    
Moisture  
Dew Point 56 °F    
Average Humidity 65    
Maximum Humidity 93    
Minimum Humidity 37    
Precipitation  
Precipitation T in 0.06 in 1.28 in (1933)
Month to date precipitation 0.94 1.43  
Year to date precipitation 13.29 12.14  
Sea Level Pressure  
Sea Level Pressure 30.08 in    
Wind  
Wind Speed 11 mph (SE)    
Max Wind Speed 22 mph    
Max Gust Speed 28 mph    
Visibility 10 miles    
Events      
T = Trace of Precipitation, MM = Missing Value Source: NWS Daily Summary

Daily Weather History Graph

Daily Weather History Graph

Search for Another Location

Airport or City:

Trip Planner

Search our weather history database for the weather conditions in past years. The results will help you decide how hot, cold, wet, or windy it might be!

Date:

Astronomy

Aug. 26, 2014 Rise Set
Actual Time 6:10 AM MDT 7:34 PM MDT
Civil Twilight 5:41 AM MDT 8:03 PM MDT
Nautical Twilight 5:06 AM MDT 8:38 PM MDT
Astronomical Twilight 4:28 AM MDT 9:15 PM MDT
Moon 7:14 AM MDT (8/26) 7:54 PM MDT (8/26)
Length of Visible Light 14h 22m
Length of Day
13h 24m
New Moon, 1% of the Moon is Illuminated
Aug 26
New Moon
Sep 2
First Quarter
Sep 8
Full
Sep 15
Last Quarter
Sep 24
New

Hourly Weather History & Observations

Time (MDT) Temp. Heat Index Dew Point Humidity Pressure Visibility Wind Dir Wind Speed Gust Speed Precip Events Conditions
12:53 AM 60.1 °F - 54.0 °F 80% 30.09 in 10.0 mi ESE 9.2 mph - N/A   Clear
1:53 AM 59.0 °F - 54.0 °F 83% 30.08 in 10.0 mi ESE 9.2 mph - N/A   Clear
2:53 AM 55.4 °F - 53.6 °F 94% 30.17 in 10.0 mi SE 8.1 mph - N/A   Clear
3:53 AM 54.0 °F - 52.0 °F 93% 30.09 in 10.0 mi North 4.6 mph - N/A   Clear
4:53 AM 54.0 °F - 52.0 °F 93% 30.09 in 10.0 mi North 5.8 mph - N/A   Clear
5:53 AM 53.6 °F - 51.8 °F 94% 30.19 in 10.0 mi NNE 6.9 mph - N/A   Partly Cloudy
6:53 AM 55.0 °F - 54.0 °F 96% 30.09 in 10.0 mi SE 9.2 mph - N/A   Clear
7:25 AM 55.9 °F - 54.0 °F 93% 30.19 in 10.0 mi SSE 6.9 mph - N/A   Mostly Cloudy
7:32 AM 57.0 °F - 55.0 °F 93% 30.19 in 10.0 mi SSE 10.4 mph - N/A   Scattered Clouds
7:53 AM 57.9 °F - 55.0 °F 90% 30.12 in 10.0 mi SSE 8.1 mph - N/A   Clear
8:53 AM 62.6 °F - 55.4 °F 77% 30.19 in 10.0 mi SSE 17.3 mph - N/A   Clear
9:53 AM 66.9 °F - 57.0 °F 70% 30.10 in 10.0 mi SSE 16.1 mph - N/A   Clear
10:53 AM 73.0 °F - 57.0 °F 57% 30.08 in 10.0 mi South 15.0 mph - N/A   Clear
11:53 AM 77.0 °F - 57.9 °F 52% 30.05 in 10.0 mi Variable 5.8 mph - N/A   Clear
12:53 PM 79.0 °F - 55.0 °F 44% 30.05 in 10.0 mi SSW 9.2 mph - N/A   Partly Cloudy
1:53 PM 81.0 °F 80.8 °F 55.9 °F 42% 30.03 in 10.0 mi SSE 11.5 mph 21.9 mph N/A   Partly Cloudy
2:53 PM 82.0 °F 81.7 °F 57.0 °F 42% 30.01 in 10.0 mi SE 12.7 mph 19.6 mph N/A   Clear
3:53 PM 84.0 °F 83.0 °F 55.9 °F 38% 30.00 in 10.0 mi SSE 18.4 mph 24.2 mph N/A   Clear
4:53 PM 82.9 °F 82.1 °F 55.9 °F 39% 29.99 in 10.0 mi SE 17.3 mph - N/A   Clear
5:53 PM 75.9 °F - 57.0 °F 52% 30.01 in 10.0 mi SSE 19.6 mph - N/A   Clear
6:53 PM 73.0 °F - 60.1 °F 64% 30.00 in 10.0 mi SSE 18.4 mph - N/A   Partly Cloudy
7:53 PM 71.1 °F - 61.0 °F 70% 30.04 in 10.0 mi SE 10.4 mph - N/A   Clear
8:53 PM 70.0 °F - 61.0 °F 73% 30.06 in 10.0 mi SE 9.2 mph - N/A   Scattered Clouds
9:53 PM 70.0 °F - 62.1 °F 76% 30.04 in 10.0 mi ESE 8.1 mph - 0.00 in   Mostly Cloudy
10:53 PM 69.1 °F - 62.1 °F 78% 30.03 in 10.0 mi SSE 12.7 mph - 0.00 in   Scattered Clouds
11:53 PM 64.9 °F - 61.0 °F 87% 30.02 in 10.0 mi SE 5.8 mph - N/A   Clear